�v������,���r���O(���x),�����t���O,���r���O(���x),�����t���O,��1(���x),�����t���O,��1(���x),�����t���O,�O�C���x,�����t���O,�O�C���x,�����t���O,�������x,�����t���O,�C�ۑ�(���x),�����t���O,�C�ۑ�(���x),�����t���O
5/1/2004 0:00,23.4,0,42,0,25.2,0,45,0,17.8,0,49,0,18.1,0,16.7,0,67.8,0
5/1/2004 0:00,23.5,0,44,0,25.1,0,45,0,17.9,0,48,0,18.3,0,16.8,0,67.8,0
5/1/2004 0:15,23.6,0,44,0,25.1,0,46,0,18.2,0,47,0,18.5,0,16.9,0,67.8,0
5/1/2004 0:30,23.6,0,43,0,25.1,0,46,0,17.8,0,47,0,18.6,0,17,0,67.8,0
5/1/2004 0:45,23.6,0,44,0,25.1,0,47,0,17.9,0,47,0,18.7,0,17.1,0,67.8,0
5/1/2004 1:00,23.6,0,44,0,25.1,0,47,0,17.8,0,49,0,18.8,0,17,0,69.1,0
5/1/2004 1:15,23.6,0,44,0,25.1,0,48,0,17.8,0,48,0,18.9,0,16.9,0,70.3,0
5/1/2004 1:30,23.6,0,43,0,25.1,0,49,0,18.2,0,47,0,19.1,0,16.9,0,71.6,0
5/1/2004 1:45,23.6,0,44,0,25.1,0,49,0,18.2,0,46,0,19.1,0,16.8,0,72.8,0
5/1/2004 2:00,23.6,0,43,0,25.1,0,50,0,18.3,0,46,0,19.2,0,16.9,0,71.8,0
5/1/2004 2:15,23.5,0,43,0,25.1,0,51,0,18,0,48,0,19.3,0,17,0,70.8,0
5/1/2004 2:30,23.2,0,42,0,25.1,0,51,0,18.4,0,44,0,19.4,0,17.1,0,69.8,0
5/1/2004 2:45,23,0,42,0,25.1,0,51,0,18.6,0,44,0,19.6,0,17.2,0,68.8,0
5/1/2004 3:00,22.9,0,42,0,25,0,50,0,18.3,0,45,0,19.7,0,17.3,0,67.8,0
5/1/2004 3:15,22.8,0,42,0,25,0,50,0,18.2,0,45,0,19.7,0,17.4,0,66.8,0
5/1/2004 3:30,22.7,0,43,0,25,0,50,0,18.1,0,45,0,19.8,0,17.5,0,65.8,0
5/1/2004 3:45,22.7,0,43,0,25,0,51,0,18.1,0,45,0,19.9,0,17.6,0,64.8,0
5/1/2004 4:00,22.6,0,43,0,25,0,52,0,18,0,46,0,20.1,0,17.6,0,64.3,0
5/1/2004 4:15,22.5,0,43,0,25.1,0,52,0,18.1,0,45,0,20.2,0,17.7,0,63.8,0
5/1/2004 4:30,22.5,0,43,0,25,0,52,0,18,0,46,0,20.3,0,17.7,0,63.3,0
5/1/2004 4:45,22.4,0,43,0,25,0,52,0,18,0,47,0,20.4,0,17.8,0,62.8,0
5/1/2004 5:00,22.4,0,43,0,24.9,0,52,0,18,0,47,0,20.4,0,17.7,0,63.6,0
5/1/2004 5:15,22.3,0,43,0,25,0,52,0,17.9,0,48,0,20.5,0,17.7,0,64.3,0
5/1/2004 5:30,22.3,0,44,0,24.9,0,51,0,17.8,0,49,0,20.6,0,17.6,0,65.1,0
5/1/2004 5:45,22.2,0,44,0,24.9,0,51,0,17.8,0,49,0,20.6,0,17.6,0,65.8,0
5/1/2004 6:00,22.2,0,44,0,24.8,0,52,0,17.9,0,49,0,20.7,0,17.8,0,65.3,0
5/1/2004 6:15,22.1,0,44,0,24.8,0,52,0,18.2,0,48,0,20.9,0,18,0,64.8,0
5/1/2004 6:30,22.1,0,44,0,24.8,0,51,0,18.5,0,48,0,21,0,18.3,0,64.3,0
5/1/2004 6:45,22.1,0,44,0,24.9,0,52,0,18.7,0,47,0,21,0,18.5,0,63.8,0
5/1/2004 7:00,22.2,0,44,0,25,0,53,0,19,0,46,0,21.1,0,19,0,61.5,0
5/1/2004 7:15,22.2,0,44,0,25.1,0,51,0,19.5,0,44,0,21.2,0,19.4,0,59.3,0
5/1/2004 7:30,22.4,0,44,0,24.8,0,48,0,19.9,0,42,0,21.3,0,19.9,0,57,0
5/1/2004 7:45,22.4,0,44,0,24.6,0,42,0,20.8,0,36,0,17,0,20.4,0,54.8,0
5/1/2004 8:00,22.7,0,44,0,24.6,0,42,0,21.3,0,34,0,16.5,0,20.9,0,51.5,0
5/1/2004 8:15,22.8,0,43,0,24.6,0,40,0,21.5,0,32,0,16.6,0,21.4,0,48.3,0
5/1/2004 8:30,23.1,0,42,0,25,0,40,0,22.2,0,28,0,16.5,0,22,0,45,0
5/1/2004 8:45,23.3,0,41,0,25.2,0,38,0,22.3,0,26,0,16.7,0,22.5,0,41.8,0
5/1/2004 9:00,23.4,0,40,0,25.3,0,37,0,22.6,0,26,0,16.8,0,22.7,0,40.3,0
5/1/2004 9:15,23.6,0,39,0,25.5,0,36,0,22.8,0,24,0,17,0,22.9,0,38.8,0
5/1/2004 9:30,23.7,0,39,0,25.5,0,34,0,22.9,0,24,0,17,0,23.2,0,37.3,0
5/1/2004 9:45,23.9,0,38,0,25.6,0,32,0,23.4,0,24,0,17.2,0,23.4,0,35.8,0
5/1/2004 10:00,24,0,38,0,25.9,0,34,0,23.1,0,23,0,17.4,0,23.7,0,34.8,0
5/1/2004 10:15,24.2,0,37,0,26,0,33,0,23.8,0,21,0,17.5,0,24.1,0,33.8,0
5/1/2004 10:30,24.3,0,37,0,26.1,0,32,0,23.9,0,19,0,17.6,0,24.4,0,32.8,0
5/1/2004 10:45,24.4,0,37,0,26.4,0,32,0,24,0,19,0,17.9,0,24.8,0,31.8,0
5/1/2004 11:00,24.5,0,37,0,26.5,0,32,0,24.4,0,19,0,17.9,0,24.8,0,32.5,0
5/1/2004 11:15,24.6,0,36,0,26.7,0,32,0,25.3,0,17,0,18.2,0,24.7,0,33.3,0
5/1/2004 11:30,24.7,0,21,0,26.8,0,31,0,25.4,0,16,0,18.3,0,24.7,0,34,0
5/1/2004 11:45,24.9,0,22,0,26.7,0,29,0,25.6,0,16,0,18.5,0,24.7,0,34.8,0
5/1/2004 12:00,24.9,0,23,0,26.6,0,28,0,25.6,0,17,0,18.5,0,24.4,0,37.5,0
5/1/2004 12:15,24.6,0,26,0,26.6,0,28,0,25.4,0,20,0,17.6,0,24.2,0,40.3,0
5/1/2004 12:30,24.8,0,29,0,26.6,0,29,0,25.5,0,22,0,17.6,0,23.9,0,43,0
5/1/2004 12:45,24.5,0,33,0,26.6,0,31,0,25,0,25,0,17.8,0,23.7,0,45.8,0
5/1/2004 13:00,24.3,0,35,0,26.6,0,32,0,24.8,0,26,0,16.6,0,23.6,0,44.5,0
5/1/2004 13:15,24.6,0,32,0,26.6,0,32,0,25.1,0,24,0,16.8,0,23.5,0,43.3,0
5/1/2004 13:30,24.6,0,29,0,26.5,0,31,0,25,0,22,0,16.9,0,23.4,0,42,0
5/1/2004 13:45,24.6,0,31,0,26.6,0,31,0,25,0,22,0,17,0,23.3,0,40.8,0
5/1/2004 14:00,24.5,0,32,0,26.5,0,31,0,24.8,0,25,0,17.2,0,23,0,40.5,0
5/1/2004 14:15,24.1,0,31,0,26.5,0,31,0,24.4,0,24,0,17.4,0,22.8,0,40.3,0
5/1/2004 14:30,24.1,0,32,0,26.6,0,31,0,24.3,0,25,0,17.5,0,22.5,0,40,0
5/1/2004 14:45,23.9,0,32,0,26.6,0,31,0,24.4,0,25,0,17.7,0,22.3,0,39.8,0
5/1/2004 15:00,23.9,0,31,0,26.4,0,31,0,23.7,0,24,0,17.8,0,21.8,0,40.8,0
5/1/2004 15:15,23.1,0,32,0,26.4,0,30,0,23.5,0,24,0,18.1,0,21.4,0,41.8,0
5/1/2004 15:30,23.2,0,32,0,26.4,0,30,0,22.8,0,25,0,18.1,0,20.9,0,42.8,0
5/1/2004 15:45,22.7,0,32,0,26.4,0,30,0,22.8,0,25,0,18.3,0,20.5,0,43.8,0
5/1/2004 16:00,22.8,0,33,0,26.4,0,30,0,22.3,0,26,0,18.4,0,20.1,0,45.8,0
5/1/2004 16:15,21.5,0,37,0,26.3,0,31,0,22.1,0,28,0,18.7,0,19.7,0,47.8,0
5/1/2004 16:30,23.1,0,34,0,26.2,0,31,0,21.4,0,30,0,16.7,0,19.4,0,49.8,0
5/1/2004 16:45,24,0,33,0,26.1,0,31,0,20.9,0,30,0,16.5,0,19,0,51.8,0
5/1/2004 17:00,24.2,0,32,0,26.1,0,32,0,20.5,0,31,0,16.7,0,18.4,0,54,0
5/1/2004 17:15,24,0,32,0,26,0,32,0,20,0,32,0,16.9,0,17.7,0,56.3,0
5/1/2004 17:30,23.9,0,33,0,25.9,0,32,0,19.6,0,34,0,17,0,17.1,0,58.5,0
5/1/2004 17:45,23.7,0,33,0,25.8,0,32,0,19.1,0,35,0,17.2,0,16.5,0,60.8,0
5/1/2004 18:00,23.4,0,34,0,25.6,0,32,0,18.6,0,37,0,17.4,0,15.9,0,62.8,0
5/1/2004 18:15,23.1,0,34,0,25.5,0,32,0,18.5,0,36,0,17.6,0,15.3,0,64.8,0
5/1/2004 18:30,22.9,0,35,0,25.4,0,32,0,18.4,0,37,0,17.7,0,14.7,0,66.8,0
5/1/2004 18:45,22.7,0,36,0,25.3,0,33,0,18.3,0,38,0,17.8,0,14.1,0,68.8,0
5/1/2004 19:00,22.9,0,36,0,25.2,0,33,0,18.1,0,38,0,18.1,0,13.8,0,69.6,0
5/1/2004 19:15,23,0,36,0,25.2,0,33,0,17,0,41,0,18.1,0,13.5,0,70.3,0
5/1/2004 19:30,23,0,36,0,25.1,0,33,0,17.2,0,40,0,18.4,0,13.3,0,71.1,0
5/1/2004 19:45,22.8,0,36,0,25,0,34,0,17.1,0,40,0,18.4,0,13,0,71.8,0
5/1/2004 20:00,22.9,0,37,0,24.9,0,34,0,17,0,39,0,18.6,0,12.9,0,71.8,0
5/1/2004 20:15,22.9,0,37,0,24.8,0,34,0,17.1,0,40,0,18.7,0,12.8,0,71.8,0
5/1/2004 20:30,22.9,0,37,0,24.7,0,34,0,15.5,0,43,0,18.9,0,12.7,0,71.8,0
5/1/2004 20:45,22.8,0,36,0,24.8,0,39,0,16.4,0,39,0,19,0,12.6,0,71.8,0
5/1/2004 21:00,22.8,0,37,0,24.7,0,37,0,16.6,0,40,0,17.6,0,12.5,0,71.3,0
5/1/2004 21:15,22.8,0,37,0,24.6,0,37,0,16.6,0,37,0,17.7,0,12.4,0,70.8,0
5/1/2004 21:30,22.7,0,37,0,24.6,0,36,0,15.4,0,39,0,17.8,0,12.3,0,70.3,0
5/1/2004 21:45,22.6,0,37,0,24.5,0,36,0,15.5,0,39,0,18,0,12.2,0,69.8,0
5/1/2004 22:00,22.4,0,36,0,24.4,0,36,0,15.6,0,39,0,18.1,0,12.1,0,69.3,0
5/1/2004 22:15,22.2,0,36,0,24.4,0,36,0,16,0,37,0,18.2,0,11.9,0,68.8,0
5/1/2004 22:30,22.1,0,37,0,24.3,0,36,0,16,0,37,0,18.3,0,11.8,0,68.3,0
5/1/2004 22:45,22.1,0,38,0,24.3,0,37,0,13.9,0,43,0,18.4,0,11.7,0,67.8,0
5/1/2004 23:00,22,0,38,0,24.3,0,37,0,14.4,0,40,0,18.5,0,11.7,0,67.8,0
5/1/2004 23:15,21.8,0,38,0,24.6,0,39,0,15.8,0,37,0,18.6,0,11.7,0,67.8,0
5/1/2004 23:30,21.8,0,38,0,24.5,0,39,0,14.1,0,43,0,18.7,0,11.7,0,67.8,0
5/1/2004 23:45,21.7,0,38,0,24.5,0,40,0,14.7,0,38,0,18.8,0,11.7,0,67.8,0
5/2/2004 0:00,21.6,0,38,0,24.5,0,40,0,15.3,0,37,0,18.9,0,11.6,0,66.1,0
5/2/2004 0:15,21.5,0,38,0,24.4,0,41,0,14.4,0,39,0,19.1,0,11.6,0,64.3,0
5/2/2004 0:30,21.5,0,38,0,24.4,0,42,0,13.4,0,40,0,19.1,0,11.5,0,62.6,0
5/2/2004 0:45,21.4,0,37,0,24.5,0,43,0,14.6,0,33,0,19.2,0,11.5,0,60.8,0
5/2/2004 1:00,21.3,0,37,0,24.5,0,43,0,15.2,0,32,0,19.4,0,11.5,0,59.3,0
5/2/2004 1:15,21.3,0,37,0,24.4,0,43,0,14.2,0,34,0,19.4,0,11.4,0,57.8,0
5/2/2004 1:30,21.2,0,37,0,24.4,0,44,0,14,0,32,0,19.5,0,11.4,0,56.3,0
5/2/2004 1:45,21.1,0,37,0,24.4,0,44,0,14.6,0,32,0,19.6,0,11.4,0,54.8,0
5/2/2004 2:00,21.1,0,37,0,24.4,0,45,0,14.4,0,32,0,19.7,0,11.4,0,53.5,0
5/2/2004 2:15,21,0,37,0,24.3,0,45,0,14.4,0,31,0,19.8,0,11.4,0,52.3,0
5/2/2004 2:30,20.9,0,37,0,24.3,0,46,0,13.8,0,31,0,19.8,0,11.4,0,51,0
5/2/2004 2:45,20.8,0,37,0,24.2,0,46,0,14.3,0,29,0,19.9,0,11.4,0,49.8,0
5/2/2004 3:00,20.8,0,36,0,24.2,0,46,0,14.3,0,28,0,19.9,0,11.4,0,48.8,0
5/2/2004 3:15,20.7,0,37,0,24.2,0,46,0,14,0,26,0,20,0,11.4,0,47.8,0
5/2/2004 3:30,20.6,0,37,0,24.1,0,46,0,13.3,0,27,0,20.1,0,11.5,0,46.8,0
5/2/2004 3:45,20.5,0,37,0,24,0,46,0,13.4,0,28,0,20.2,0,11.5,0,45.8,0
5/2/2004 4:00,20.5,0,36,0,24,0,46,0,13.4,0,28,0,20.2,0,11.4,0,46.3,0
5/2/2004 4:15,20.4,0,36,0,24,0,46,0,13.8,0,27,0,20.4,0,11.3,0,46.8,0
5/2/2004 4:30,20.3,0,36,0,24,0,46,0,12.8,0,28,0,20.4,0,11.3,0,47.3,0
5/2/2004 4:45,20.3,0,36,0,23.9,0,45,0,12,0,30,0,20.5,0,11.2,0,47.8,0
5/2/2004 5:00,20.2,0,36,0,23.9,0,45,0,12.2,0,29,0,20.5,0,11.1,0,49.5,0
5/2/2004 5:15,20.1,0,36,0,23.8,0,45,0,12.6,0,30,0,20.6,0,11.1,0,51.3,0
5/2/2004 5:30,20.1,0,36,0,23.7,0,45,0,12.8,0,30,0,20.6,0,11,0,53,0
5/2/2004 5:45,20,0,36,0,23.7,0,45,0,13.6,0,29,0,20.7,0,11,0,54.8,0
5/2/2004 6:00,20,0,36,0,23.6,0,45,0,13,0,31,0,20.7,0,11.1,0,55.5,0
5/2/2004 6:15,19.8,0,36,0,23.6,0,45,0,13.7,0,30,0,20.7,0,11.2,0,56.3,0
5/2/2004 6:30,19.8,0,36,0,23.6,0,45,0,12.6,0,31,0,20.8,0,11.4,0,57,0
5/2/2004 6:45,19.9,0,36,0,23.5,0,45,0,13.4,0,30,0,20.8,0,11.5,0,57.8,0
5/2/2004 7:00,19.9,0,36,0,23.5,0,46,0,13.8,0,29,0,20.9,0,11.5,0,58,0
5/2/2004 7:15,19.8,0,36,0,23.5,0,46,0,13.8,0,31,0,20.9,0,11.5,0,58.3,0
5/2/2004 7:30,19.8,0,36,0,23.5,0,47,0,14.1,0,31,0,21,0,11.6,0,58.5,0
5/2/2004 7:45,19.8,0,36,0,23.2,0,39,0,14.1,0,32,0,21,0,11.6,0,58.8,0
5/2/2004 8:00,19.8,0,37,0,23,0,38,0,13.8,0,32,0,21,0,11.9,0,58.3,0
5/2/2004 8:15,19.9,0,38,0,22.9,0,38,0,14,0,32,0,21.1,0,12.1,0,57.8,0
5/2/2004 8:30,20,0,38,0,22.9,0,38,0,14.6,0,32,0,21.1,0,12.4,0,57.3,0
5/2/2004 8:45,20.1,0,39,0,22.8,0,39,0,14.6,0,32,0,21.1,0,12.7,0,56.8,0
5/2/2004 9:00,20.2,0,38,0,23,0,39,0,14,0,33,0,21.2,0,12.8,0,56.5,0
5/2/2004 9:15,20.3,0,38,0,23,0,35,0,14.4,0,33,0,21.2,0,13,0,56.3,0
5/2/2004 9:30,20.4,0,37,0,23,0,36,0,14.9,0,32,0,18,0,13.1,0,56,0
5/2/2004 9:45,20.3,0,37,0,23,0,39,0,15.4,0,32,0,18,0,13.3,0,55.8,0
5/2/2004 10:00,20.6,0,37,0,23,0,39,0,15.2,0,33,0,18.2,0,13.6,0,55.8,0
5/2/2004 10:15,20.7,0,37,0,23,0,40,0,15.1,0,34,0,18.4,0,13.9,0,55.8,0
5/2/2004 10:30,20.7,0,37,0,23.1,0,39,0,15.3,0,34,0,18.4,0,14.2,0,55.8,0
5/2/2004 10:45,20.7,0,37,0,23.2,0,39,0,15.6,0,32,0,18.5,0,14.5,0,55.8,0
5/2/2004 11:00,20.8,0,36,0,23.2,0,39,0,15.1,0,34,0,18.5,0,14.7,0,54,0
5/2/2004 11:15,20.8,0,36,0,23.3,0,39,0,16.3,0,32,0,18.8,0,14.9,0,52.3,0
5/2/2004 11:30,20.9,0,36,0,23.3,0,39,0,15.8,0,33,0,18.9,0,15.1,0,50.5,0
5/2/2004 11:45,20.9,0,36,0,23.4,0,39,0,16.6,0,32,0,18.9,0,15.3,0,48.8,0
5/2/2004 12:00,21,0,36,0,23.5,0,38,0,16.6,0,32,0,19,0,15.2,0,49.5,0
5/2/2004 12:15,21,0,36,0,23.7,0,38,0,16.6,0,32,0,19.1,0,15,0,50.3,0
5/2/2004 12:30,21.1,0,36,0,23.7,0,37,0,17.8,0,31,0,19.3,0,14.9,0,51,0
5/2/2004 12:45,21.2,0,36,0,23.8,0,37,0,17.4,0,30,0,19.4,0,14.8,0,51.8,0
5/2/2004 13:00,21.3,0,36,0,23.9,0,35,0,17.5,0,29,0,19.4,0,15,0,51.8,0
5/2/2004 13:15,21.4,0,38,0,23.9,0,35,0,17.4,0,30,0,17.5,0,15.1,0,51.8,0
5/2/2004 13:30,21.4,0,38,0,24,0,35,0,17.5,0,31,0,17.6,0,15.3,0,51.8,0
5/2/2004 13:45,21.6,0,38,0,24,0,35,0,17.8,0,30,0,17.7,0,15.5,0,51.8,0
5/2/2004 14:00,21.7,0,39,0,24,0,35,0,17.5,0,31,0,17.8,0,15.4,0,52.8,0
5/2/2004 14:15,21.7,0,38,0,24.1,0,35,0,17.9,0,31,0,17,0,15.3,0,53.8,0
5/2/2004 14:30,21.6,0,38,0,24.1,0,35,0,17.3,0,32,0,17.1,0,15.2,0,54.8,0
5/2/2004 14:45,21.5,0,37,0,24.1,0,35,0,17.2,0,33,0,17.3,0,15.1,0,55.8,0
5/2/2004 15:00,21.4,0,36,0,24.1,0,35,0,16.9,0,35,0,17.4,0,15,0,56.8,0
5/2/2004 15:15,21.4,0,37,0,24,0,35,0,17,0,35,0,17.6,0,14.9,0,57.8,0
5/2/2004 15:30,21.4,0,37,0,23.9,0,35,0,16.8,0,36,0,17.7,0,14.9,0,58.8,0
5/2/2004 15:45,21.3,0,38,0,23.9,0,35,0,16.7,0,37,0,17.8,0,14.8,0,59.8,0
5/2/2004 16:00,21.2,0,38,0,23.9,0,35,0,16.9,0,37,0,17.9,0,14.6,0,60.5,0
5/2/2004 16:15,21.3,0,40,0,23.8,0,36,0,16.9,0,37,0,18,0,14.4,0,61.3,0
5/2/2004 16:30,21.4,0,41,0,23.7,0,36,0,16.5,0,38,0,18.1,0,14.2,0,62,0
5/2/2004 16:45,21.4,0,41,0,23.7,0,36,0,16.5,0,39,0,17.2,0,14,0,62.8,0
5/2/2004 17:00,21.3,0,41,0,23.6,0,37,0,16.5,0,39,0,17.3,0,13.8,0,63.6,0
5/2/2004 17:15,21,0,41,0,23.6,0,37,0,16.5,0,40,0,16.8,0,13.7,0,64.3,0
5/2/2004 17:30,20.9,0,41,0,23.5,0,37,0,16.3,0,40,0,16.9,0,13.5,0,65.1,0
5/2/2004 17:45,20.9,0,41,0,23.5,0,38,0,16,0,41,0,17,0,13.4,0,65.8,0
5/2/2004 18:00,20.9,0,41,0,23.4,0,38,0,15.8,0,42,0,17.3,0,13.3,0,66.1,0
5/2/2004 18:15,20.9,0,41,0,23.3,0,38,0,15.8,0,43,0,17.4,0,13.2,0,66.3,0
5/2/2004 18:30,20.9,0,41,0,23.3,0,38,0,15.9,0,43,0,17.5,0,13.2,0,66.6,0
5/2/2004 18:45,20.9,0,41,0,23.3,0,37,0,15.8,0,44,0,17.6,0,13.1,0,66.8,0
5/2/2004 19:00,20.9,0,41,0,23.1,0,38,0,15.7,0,44,0,17.8,0,12.9,0,68.8,0
5/2/2004 19:15,20.9,0,43,0,23.1,0,38,0,15.6,0,43,0,17.9,0,12.7,0,70.8,0
5/2/2004 19:30,21,0,43,0,23,0,38,0,15.3,0,44,0,17.9,0,12.6,0,72.8,0
5/2/2004 19:45,21.1,0,45,0,23,0,38,0,15.5,0,44,0,16.4,0,12.4,0,74.8,0
5/2/2004 20:00,21.2,0,45,0,23,0,38,0,15.3,0,45,0,16.6,0,12.5,0,73.8,0
5/2/2004 20:15,21.3,0,45,0,22.9,0,39,0,15.5,0,44,0,16.7,0,12.5,0,72.8,0
5/2/2004 20:30,21.1,0,45,0,22.9,0,39,0,15.4,0,45,0,16.8,0,12.6,0,71.8,0
5/2/2004 20:45,21.2,0,45,0,22.8,0,39,0,15.5,0,45,0,17,0,12.7,0,70.8,0
5/2/2004 21:00,21.2,0,45,0,22.8,0,39,0,15.3,0,47,0,17.1,0,12.7,0,70.6,0
5/2/2004 21:15,21.3,0,46,0,22.8,0,39,0,15.2,0,49,0,17.2,0,12.8,0,70.3,0
5/2/2004 21:30,21.1,0,46,0,22.7,0,39,0,15.6,0,47,0,17.3,0,12.8,0,70.1,0
5/2/2004 21:45,21.3,0,45,0,22.7,0,39,0,15,0,48,0,17.4,0,12.9,0,69.8,0
5/2/2004 22:00,21.3,0,45,0,22.6,0,39,0,15.1,0,49,0,16.7,0,12.9,0,70.1,0
5/2/2004 22:15,21.2,0,45,0,22.6,0,40,0,15.4,0,47,0,16.8,0,12.9,0,70.3,0
5/2/2004 22:30,21,0,45,0,22.6,0,40,0,15.4,0,48,0,16.6,0,12.9,0,70.6,0
5/2/2004 22:45,20.9,0,45,0,22.6,0,41,0,15.4,0,47,0,16.7,0,12.9,0,70.8,0
5/2/2004 23:00,20.8,0,45,0,22.7,0,42,0,15.7,0,47,0,16.8,0,13,0,70.3,0
5/2/2004 23:15,20.7,0,45,0,22.7,0,43,0,15.4,0,48,0,17,0,13.1,0,69.8,0
5/2/2004 23:30,20.6,0,45,0,22.8,0,44,0,14.7,0,49,0,17.1,0,13.2,0,69.3,0
5/2/2004 23:45,20.5,0,45,0,22.8,0,45,0,14.1,0,54,0,17.1,0,13.3,0,68.8,0
5/3/2004 0:00,20.4,0,45,0,22.8,0,46,0,14.3,0,52,0,17.3,0,13.3,0,69.1,0
5/3/2004 0:15,20.3,0,45,0,22.9,0,47,0,14.9,0,53,0,17.4,0,13.2,0,69.3,0
5/3/2004 0:30,20.3,0,44,0,22.9,0,47,0,14.6,0,54,0,17.5,0,13.2,0,69.6,0
5/3/2004 0:45,20.3,0,44,0,22.9,0,47,0,14,0,58,0,17.6,0,13.2,0,69.8,0
5/3/2004 1:00,20.2,0,44,0,23,0,48,0,13.3,0,64,0,17.7,0,12.9,0,71.8,0
5/3/2004 1:15,20.1,0,45,0,22.9,0,48,0,13.9,0,64,0,17.8,0,12.6,0,73.8,0
5/3/2004 1:30,20,0,45,0,23,0,48,0,14.1,0,65,0,17.9,0,12.3,0,75.8,0
5/3/2004 1:45,20,0,45,0,23.1,0,48,0,13.6,0,66,0,18,0,12,0,77.8,0
5/3/2004 2:00,19.9,0,45,0,23.1,0,48,0,13.5,0,68,0,18.1,0,11.9,0,79.1,0
5/3/2004 2:15,19.9,0,45,0,23,0,48,0,13.2,0,68,0,18.2,0,11.7,0,80.3,0
5/3/2004 2:30,19.8,0,45,0,22.8,0,48,0,13,0,67,0,18.2,0,11.6,0,81.6,0
5/3/2004 2:45,19.8,0,47,0,22.8,0,48,0,13.2,0,69,0,18.4,0,11.5,0,82.8,0
5/3/2004 3:00,19.7,0,47,0,22.8,0,49,0,12.5,0,67,0,18.4,0,11.5,0,84.1,0
5/3/2004 3:15,19.7,0,48,0,22.9,0,49,0,12.6,0,68,0,18.5,0,11.4,0,85.3,0
5/3/2004 3:30,19.7,0,48,0,22.8,0,49,0,13.9,0,65,0,18.6,0,11.4,0,86.6,0
5/3/2004 3:45,19.7,0,48,0,22.8,0,49,0,13.1,0,64,0,18.7,0,11.4,0,87.8,0
5/3/2004 4:00,19.8,0,48,0,22.8,0,49,0,13.3,0,65,0,18.8,0,11.4,0,87.3,0
5/3/2004 4:15,19.7,0,48,0,22.7,0,49,0,12.7,0,68,0,18.9,0,11.4,0,86.8,0
5/3/2004 4:30,19.8,0,48,0,22.7,0,49,0,13.1,0,69,0,19,0,11.5,0,86.3,0
5/3/2004 4:45,19.8,0,48,0,22.6,0,49,0,13.6,0,66,0,19.1,0,11.5,0,85.8,0
5/3/2004 5:00,19.8,0,49,0,22.6,0,49,0,13.4,0,67,0,19.2,0,11.4,0,86.1,0
5/3/2004 5:15,19.8,0,49,0,22.6,0,49,0,13.1,0,70,0,19.3,0,11.4,0,86.3,0
5/3/2004 5:30,19.7,0,49,0,22.5,0,49,0,13.1,0,68,0,19.4,0,11.3,0,86.6,0
5/3/2004 5:45,19.8,0,49,0,22.6,0,49,0,13.7,0,69,0,19.5,0,11.3,0,86.8,0
5/3/2004 6:00,19.8,0,49,0,22.5,0,49,0,13.6,0,66,0,19.5,0,11.4,0,87.3,0
5/3/2004 6:15,19.7,0,49,0,22.4,0,49,0,13.6,0,67,0,19.6,0,11.4,0,87.8,0
5/3/2004 6:30,19.7,0,49,0,22.4,0,50,0,13.6,0,69,0,16.8,0,11.5,0,88.3,0
5/3/2004 6:45,19.6,0,50,0,22.4,0,49,0,13.5,0,67,0,17,0,11.6,0,88.8,0
5/3/2004 7:00,19.7,0,50,0,22.4,0,49,0,13.2,0,68,0,17.1,0,11.7,0,88.6,0
5/3/2004 7:15,19.6,0,50,0,22.4,0,49,0,12.6,0,70,0,17.2,0,11.8,0,88.3,0
5/3/2004 7:30,19.6,0,50,0,22.5,0,50,0,12.8,0,72,0,17.3,0,11.9,0,88.1,0
5/3/2004 7:45,19.6,0,50,0,22.9,0,51,0,12.6,0,71,0,17.4,0,12,0,87.8,0
5/3/2004 8:00,19.6,0,50,0,22.6,0,49,0,12.8,0,73,0,17.5,0,11.9,0,88.1,0
5/3/2004 8:15,19.3,0,50,0,22.4,0,48,0,13.5,0,72,0,17.6,0,11.9,0,88.3,0
5/3/2004 8:30,19.1,0,49,0,22.4,0,48,0,13.5,0,71,0,17.7,0,11.8,0,88.6,0
5/3/2004 8:45,19.1,0,49,0,22.2,0,47,0,13.9,0,68,0,17.8,0,11.8,0,88.8,0
5/3/2004 9:00,19.2,0,49,0,22.2,0,47,0,13.9,0,66,0,18,0,12,0,88.6,0
5/3/2004 9:15,19.2,0,49,0,22,0,47,0,13.5,0,65,0,18.1,0,12.1,0,88.3,0
5/3/2004 9:30,19.3,0,49,0,22,0,46,0,13.3,0,69,0,18.2,0,12.3,0,88.1,0
5/3/2004 9:45,19.3,0,50,0,21.8,0,46,0,13.4,0,71,0,18.2,0,12.5,0,87.8,0
5/3/2004 10:00,19.4,0,50,0,21.8,0,46,0,14.1,0,70,0,18.4,0,12.6,0,87.6,0
5/3/2004 10:15,19.4,0,50,0,21.7,0,46,0,14.3,0,68,0,18.5,0,12.8,0,87.3,0
5/3/2004 10:30,19.4,0,51,0,21.8,0,45,0,14.3,0,66,0,18.6,0,12.9,0,87.1,0
5/3/2004 10:45,19.4,0,51,0,21.6,0,45,0,14.7,0,66,0,17.1,0,13.1,0,86.8,0
5/3/2004 11:00,19.4,0,51,0,21.6,0,46,0,14.6,0,67,0,17.3,0,13.2,0,86.3,0
5/3/2004 11:15,19.3,0,51,0,21.7,0,45,0,14.7,0,69,0,17.4,0,13.2,0,85.8,0
5/3/2004 11:30,19.3,0,50,0,21.6,0,45,0,14.7,0,70,0,17.5,0,13.3,0,85.3,0
5/3/2004 11:45,19.4,0,50,0,21.5,0,45,0,14.9,0,71,0,17.6,0,13.4,0,84.8,0
5/3/2004 12:00,19.4,0,50,0,21.6,0,46,0,15.4,0,71,0,17.7,0,13.6,0,84.1,0
5/3/2004 12:15,19.4,0,49,0,21.5,0,47,0,15.1,0,72,0,17.8,0,13.9,0,83.3,0
5/3/2004 12:30,19.5,0,51,0,21.5,0,47,0,15.8,0,72,0,16.7,0,14.1,0,82.6,0
5/3/2004 12:45,19.8,0,51,0,21.4,0,47,0,16,0,70,0,16.8,0,14.4,0,81.8,0
5/3/2004 13:00,20,0,51,0,21.5,0,47,0,16.1,0,69,0,16.9,0,14.7,0,80.8,0
5/3/2004 13:15,20.1,0,51,0,21.5,0,47,0,16.4,0,68,0,17,0,15.1,0,79.8,0
5/3/2004 13:30,20.1,0,52,0,21.4,0,48,0,16.4,0,68,0,17.1,0,15.4,0,78.8,0
5/3/2004 13:45,20,0,50,0,21.4,0,47,0,16.3,0,69,0,16.8,0,15.8,0,77.8,0
5/3/2004 14:00,19.9,0,53,0,21.4,0,47,0,16.4,0,70,0,16.9,0,16,0,78.6,0
5/3/2004 14:15,19.9,0,54,0,21.5,0,47,0,16.7,0,72,0,17,0,16.2,0,79.3,0
5/3/2004 14:30,19.8,0,55,0,21.3,0,47,0,16.7,0,73,0,17.1,0,16.5,0,80.1,0
5/3/2004 14:45,19.8,0,56,0,21.4,0,48,0,17.3,0,75,0,17.3,0,16.7,0,80.8,0
5/3/2004 15:00,19.9,0,56,0,21.3,0,48,0,17.6,0,75,0,17.4,0,17.3,0,78.6,0
5/3/2004 15:15,20.2,0,54,0,21.5,0,49,0,18.7,0,69,0,17.5,0,18,0,76.3,0
5/3/2004 15:30,20.5,0,54,0,21.4,0,52,0,18.8,0,61,0,17.6,0,18.6,0,74.1,0
5/3/2004 15:45,20.8,0,53,0,21.5,0,52,0,19.1,0,59,0,17.7,0,19.3,0,71.8,0
5/3/2004 16:00,21,0,53,0,21.6,0,51,0,19.1,0,58,0,17.7,0,19.4,0,71.1,0
5/3/2004 16:15,21,0,52,0,21.6,0,54,0,18.9,0,59,0,17,0,19.4,0,70.3,0
5/3/2004 16:30,20.9,0,53,0,21.7,0,57,0,18.7,0,60,0,17.2,0,19.5,0,69.6,0
5/3/2004 16:45,21,0,53,0,21.7,0,58,0,18.9,0,59,0,16.7,0,19.6,0,68.8,0
5/3/2004 17:00,20.8,0,53,0,21.8,0,58,0,18.8,0,57,0,16.8,0,19.5,0,69.1,0
5/3/2004 17:15,20.8,0,53,0,21.7,0,58,0,18.9,0,57,0,16.9,0,19.4,0,69.3,0
5/3/2004 17:30,20.8,0,54,0,21.8,0,57,0,19,0,57,0,17,0,19.3,0,69.6,0
5/3/2004 17:45,20.8,0,55,0,21.8,0,56,0,18.7,0,58,0,17.2,0,19.2,0,69.8,0
5/3/2004 18:00,20.7,0,55,0,21.8,0,56,0,18.8,0,56,0,16.9,0,19.1,0,69.8,0
5/3/2004 18:15,20.8,0,55,0,21.9,0,55,0,18.6,0,57,0,17,0,19.1,0,69.8,0
5/3/2004 18:30,20.9,0,55,0,21.7,0,54,0,18.6,0,57,0,17.1,0,19,0,69.8,0
5/3/2004 18:45,20.9,0,55,0,21.8,0,54,0,18.5,0,58,0,17.3,0,19,0,69.8,0
5/3/2004 19:00,20.9,0,55,0,21.7,0,54,0,18.4,0,59,0,17.3,0,18.9,0,70.1,0
5/3/2004 19:15,21,0,54,0,21.7,0,53,0,18.3,0,59,0,17.5,0,18.9,0,70.3,0
5/3/2004 19:30,21,0,53,0,21.7,0,53,0,18.7,0,57,0,17.7,0,18.8,0,70.6,0
5/3/2004 19:45,21,0,53,0,21.7,0,53,0,18.4,0,56,0,17.7,0,18.8,0,70.8,0
5/3/2004 20:00,21.1,0,53,0,21.7,0,54,0,18.5,0,56,0,17.9,0,18.8,0,69.8,0
5/3/2004 20:15,21,0,53,0,21.6,0,53,0,18.5,0,55,0,18,0,18.7,0,68.8,0
5/3/2004 20:30,21.1,0,53,0,21.6,0,53,0,18.4,0,54,0,18.1,0,18.7,0,67.8,0
5/3/2004 20:45,21.2,0,53,0,21.6,0,53,0,18.4,0,54,0,18.2,0,18.7,0,66.8,0
5/3/2004 21:00,21.2,0,53,0,21.6,0,52,0,18.3,0,54,0,18.4,0,18.7,0,66.6,0
5/3/2004 21:15,21.1,0,52,0,21.6,0,53,0,18.4,0,53,0,17.3,0,18.7,0,66.3,0
5/3/2004 21:30,21.1,0,52,0,21.5,0,52,0,18.4,0,51,0,16.7,0,18.8,0,66.1,0
5/3/2004 21:45,21,0,52,0,21.5,0,51,0,18.2,0,52,0,16.9,0,18.8,0,65.8,0
5/3/2004 22:00,21,0,52,0,21.5,0,51,0,18.2,0,52,0,17,0,18.8,0,65.8,0
5/3/2004 22:15,20.9,0,54,0,21.6,0,51,0,18.3,0,53,0,16.6,0,18.8,0,65.8,0
5/3/2004 22:30,21.1,0,54,0,21.5,0,50,0,18.3,0,54,0,16.7,0,18.8,0,65.8,0
5/3/2004 22:45,21.1,0,54,0,21.6,0,51,0,18.2,0,56,0,16.8,0,18.8,0,65.8,0
5/3/2004 23:00,21.1,0,54,0,21.7,0,52,0,18.2,0,56,0,16.9,0,18.8,0,65.8,0
5/3/2004 23:15,21.2,0,54,0,21.7,0,52,0,18.4,0,54,0,17,0,18.9,0,65.8,0
5/3/2004 23:30,21.2,0,53,0,21.8,0,52,0,18.2,0,55,0,16.8,0,18.9,0,65.8,0
5/3/2004 23:45,21.3,0,53,0,21.8,0,52,0,18.6,0,54,0,16.8,0,19,0,65.8,0
5/4/2004 0:00,21.3,0,53,0,21.9,0,53,0,18.6,0,53,0,17,0,19,0,67.6,0
5/4/2004 0:15,21.3,0,52,0,21.9,0,54,0,18.7,0,53,0,17.1,0,18.9,0,69.3,0
5/4/2004 0:30,21.3,0,52,0,22,0,55,0,18.7,0,54,0,17.2,0,18.9,0,71.1,0
5/4/2004 0:45,21.5,0,52,0,22.1,0,55,0,18.6,0,55,0,17.3,0,18.9,0,72.8,0
5/4/2004 1:00,21.6,0,52,0,22.2,0,56,0,18.5,0,55,0,17.4,0,18.9,0,72.1,0
5/4/2004 1:15,21.7,0,52,0,22.2,0,56,0,18.7,0,55,0,17.5,0,19,0,71.3,0
5/4/2004 1:30,21.7,0,52,0,22.2,0,56,0,18.6,0,56,0,17.7,0,19,0,70.6,0
5/4/2004 1:45,21.8,0,52,0,22.3,0,56,0,18.6,0,55,0,17.7,0,19.1,0,69.8,0
5/4/2004 2:00,21.8,0,52,0,22.4,0,56,0,18.9,0,52,0,17.9,0,19.2,0,69.8,0
5/4/2004 2:15,21.8,0,52,0,22.4,0,56,0,18.8,0,51,0,16.7,0,19.2,0,69.8,0
5/4/2004 2:30,21.8,0,52,0,22.4,0,56,0,18.7,0,54,0,16.8,0,19.3,0,69.8,0
5/4/2004 2:45,21.8,0,52,0,22.3,0,57,0,18.7,0,55,0,17,0,19.4,0,69.8,0
5/4/2004 3:00,21.9,0,52,0,22.3,0,56,0,18.9,0,54,0,17.1,0,19.4,0,70.3,0
5/4/2004 3:15,21.9,0,52,0,22.3,0,56,0,18.7,0,55,0,17.2,0,19.3,0,70.8,0
5/4/2004 3:30,21.9,0,52,0,22.3,0,56,0,18.7,0,56,0,17.3,0,19.3,0,71.3,0
5/4/2004 3:45,21.9,0,52,0,22.3,0,56,0,18.7,0,57,0,17.4,0,19.3,0,71.8,0
5/4/2004 4:00,21.8,0,52,0,22.4,0,56,0,18.8,0,57,0,17.4,0,19.3,0,72.1,0
5/4/2004 4:15,21.5,0,51,0,22.5,0,57,0,18.6,0,58,0,17.6,0,19.2,0,72.3,0
5/4/2004 4:30,21.5,0,51,0,22.4,0,57,0,18.9,0,58,0,17.7,0,19.2,0,72.6,0
5/4/2004 4:45,21.3,0,51,0,22.4,0,57,0,19,0,57,0,18,0,19.2,0,72.8,0
5/4/2004 5:00,21.4,0,51,0,22.4,0,57,0,18.8,0,58,0,18.1,0,19.2,0,72.8,0
5/4/2004 5:15,21.2,0,51,0,22.5,0,57,0,18.9,0,59,0,18.2,0,19.2,0,72.8,0
5/4/2004 5:30,21.3,0,52,0,22.5,0,56,0,19,0,59,0,18.3,0,19.3,0,72.8,0
5/4/2004 5:45,21.2,0,52,0,22.4,0,57,0,19,0,59,0,18.4,0,19.3,0,72.8,0
5/4/2004 6:00,21.1,0,52,0,22.4,0,57,0,19.1,0,58,0,18.5,0,19.3,0,73.1,0
5/4/2004 6:15,21.1,0,52,0,22.4,0,57,0,19.2,0,58,0,18.6,0,19.2,0,73.3,0
5/4/2004 6:30,21,0,52,0,22.5,0,57,0,19.1,0,59,0,18.7,0,19.2,0,73.6,0
5/4/2004 6:45,21.1,0,52,0,22.5,0,56,0,19.1,0,59,0,18.9,0,19.2,0,73.8,0
5/4/2004 7:00,21,0,53,0,22.4,0,56,0,19.3,0,60,0,19.1,0,19.4,0,74.1,0
5/4/2004 7:15,21,0,54,0,22.5,0,55,0,19.3,0,59,0,19.2,0,19.6,0,74.3,0
5/4/2004 7:30,21,0,54,0,22.3,0,55,0,19.3,0,58,0,19.3,0,19.8,0,74.6,0
5/4/2004 7:45,21,0,54,0,22.5,0,55,0,19.6,0,56,0,19.3,0,20,0,74.8,0
5/4/2004 8:00,21,0,55,0,22.4,0,55,0,19.7,0,56,0,19.4,0,20,0,75.6,0
5/4/2004 8:15,21,0,55,0,22.4,0,54,0,19.7,0,58,0,17,0,20,0,76.3,0
5/4/2004 8:30,21,0,54,0,22.3,0,55,0,20.2,0,59,0,17,0,20.1,0,77.1,0
5/4/2004 8:45,21.2,0,56,0,23.1,0,59,0,20.2,0,58,0,16.5,0,20.1,0,77.8,0
5/4/2004 9:00,21.3,0,56,0,22.7,0,57,0,20.3,0,59,0,16.5,0,20.1,0,78.1,0
5/4/2004 9:15,21.3,0,56,0,22.5,0,54,0,20.4,0,61,0,16.4,0,20.1,0,78.3,0
5/4/2004 9:30,21.4,0,56,0,22.4,0,54,0,20.4,0,62,0,16.5,0,20.1,0,78.6,0
5/4/2004 9:45,21.4,0,55,0,22.4,0,57,0,20.4,0,63,0,16.7,0,20.1,0,78.8,0
5/4/2004 10:00,21.5,0,55,0,22.4,0,60,0,20.8,0,61,0,16.8,0,20.2,0,78.6,0
5/4/2004 10:15,21.6,0,55,0,22.4,0,61,0,20.8,0,61,0,17,0,20.2,0,78.3,0
5/4/2004 10:30,21.7,0,54,0,22.4,0,62,0,20.8,0,62,0,17.1,0,20.3,0,78.1,0
5/4/2004 10:45,21.7,0,54,0,22.4,0,63,0,20.8,0,62,0,17.3,0,20.4,0,77.8,0